[[{"header":{"parameterUnit":"m.s-1","parameterCategory":1,"la1":30.2991,"la2":30.254,"lo1":-89.0895,"lo2":-89.0444,"dy":0.0017,"dx":0.0017,"nx":28,"ny":28,"refTime":"2024-05-08T09:00:00:Z","depth":0,"parameterNumber":2,"parameterNumberName":"U-component_of_WINDS"},"data":[0,0,0,0,0,0,0,0,0,0,0,0,0,0,0,0,0,0,0,0,0,0,0,0,0,0,0,0,0,0,0,0,0,0,0,0,0,0,0,0,0,0,0,0,0,0,0,0,0,0,0,0,0,0,0,0,0,0,-0.0891,-0.0891,0,-0.0876,-0.0876,-0.0876,-0.0866,-0.0866,-0.0866,-0.0866,-0.0851,-0.085,-0.085,0,0,0,0,0,0,0,0,0,0,0,0,0,-0.0913,-0.0913,-0.0891,-0.0891,-0.0891,-0.0876,-0.0876,-0.0876,-0.0866,-0.0866,-0.0866,-0.0866,-0.0851,-0.085,-0.085,0,0,0,0,0,0,0,0,0,0,0,0,0,-0.0901,-0.0913,-0.0891,-0.0884,-0.0884,-0.0876,-0.0876,-0.0875,-0.0866,-0.0866,-0.0866,-0.0866,-0.0851,-0.085,-0.085,-0.0848,0,0,-0.0848,-0.0848,0,0,0,0,0,0,0,0,-0.0902,-0.0901,-0.0886,-0.0885,-0.0884,-0.0873,-0.0878,-0.0866,-0.0866,-0.0873,-0.0866,-0.0866,-0.0858,-0.0857,-0.0854,-0.0847,-0.0846,-0.0848,-0.0848,-0.0848,-0.0847,0,0,0,0,0,0,0,-0.0903,-0.0901,-0.0885,-0.0885,-0.0884,-0.0882,-0.0881,-0.0876,-0.0866,-0.0872,-0.0872,-0.087,-0.0858,-0.0855,-0.0854,-0.0846,-0.0848,-0.0848,-0.0847,-0.0847,-0.0837,-0.0837,0,0,0,0,0,0,-0.0905,-0.0902,-0.0886,-0.0885,-0.0893,-0.0882,-0.088,-0.0877,-0.0866,-0.0865,-0.087,-0.087,-0.0856,-0.0855,-0.0853,-0.0851,-0.0848,-0.0847,-0.0847,-0.0837,-0.0837,-0.0838,0,0,0,0,0,0,-0.0905,-0.0903,-0.0886,-0.0893,-0.0891,-0.0882,-0.0878,-0.0876,-0.0873,-0.0864,-0.0863,-0.0869,-0.0856,-0.0854,-0.0849,-0.085,-0.0847,-0.0846,-0.0837,-0.0837,-0.0837,-0.0845,0,0,0,0,0,0,-0.0906,-0.0904,-0.0902,-0.0893,-0.089,-0.0882,-0.0878,-0.0876,-0.0873,-0.0872,-0.0863,-0.0861,-0.0856,-0.085,-0.0849,-0.0849,-0.0846,-0.0837,-0.0837,-0.0837,-0.0845,-0.0846,-0.0846,0,0,0,0,0,-0.0907,-0.0905,-0.0902,-0.09,-0.0889,-0.0882,-0.0881,-0.0874,-0.0873,-0.0872,-0.0866,-0.0862,-0.085,-0.085,-0.0848,-0.0848,-0.0837,-0.0837,-0.0837,-0.0845,-0.0846,-0.0846,0,0,0,0,0,0,-0.0914,-0.0904,-0.0901,-0.0896,-0.089,-0.0881,-0.0879,-0.0875,-0.087,-0.087,-0.0862,-0.086,-0.0856,-0.0852,-0.0852,-0.0846,-0.0843,-0.0843,-0.0849,-0.085,-0.0851,-0.0852,-0.0845,0,0,0,0,0,-0.0915,-0.0911,-0.0902,-0.0899,-0.0896,-0.0888,-0.0885,-0.0881,-0.0875,-0.0872,-0.0866,-0.086,-0.0856,-0.0853,-0.0848,-0.0844,-0.0843,-0.0844,-0.0844,-0.0845,-0.0845,-0.0844,-0.0844,-0.0838,-0.0838,-0.0838,0,0,-0.0918,-0.0911,-0.0909,-0.09,-0.0895,-0.0891,-0.0886,-0.0882,-0.0879,-0.0871,-0.0867,-0.0862,-0.0855,-0.0852,-0.085,-0.0848,-0.0846,-0.0845,-0.0846,-0.0845,-0.0844,-0.0845,-0.0845,-0.0838,-0.0838,-0.0838,0,0,-0.092,-0.0914,-0.0911,-0.0907,-0.0899,-0.0894,-0.0894,-0.0885,-0.0882,-0.0877,-0.0872,-0.0869,-0.086,-0.0856,-0.0853,-0.0854,-0.085,-0.0853,-0.0856,-0.0855,-0.0856,-0.0856,-0.0857,-0.0858,-0.0853,-0.0853,-0.0853,0,-0.0923,-0.0917,-0.091,-0.0906,-0.0903,-0.0896,-0.0894,-0.089,-0.0881,-0.0879,-0.0877,-0.0867,-0.0862,-0.0858,-0.0858,-0.0856,-0.0855,-0.0854,-0.0856,-0.0857,-0.0857,-0.0858,-0.0858,-0.0853,-0.0853,-0.0853,-0.0853,0,-0.0922,-0.0918,-0.0916,-0.0909,-0.0905,-0.0902,-0.0895,-0.0892,-0.0889,-0.0884,-0.088,-0.0874,-0.0868,-0.0866,-0.0862,-0.0861,-0.0861,-0.0858,-0.0854,-0.0858,-0.0859,-0.0859,-0.0854,-0.0854,-0.0854,-0.0853,0,0,-0.0928,-0.0917,-0.0917,-0.0914,-0.0906,-0.0902,-0.0899,-0.0894,-0.0892,-0.0887,-0.0884,-0.0878,-0.0875,-0.0872,-0.0867,-0.0866,-0.0869,-0.0863,-0.0863,-0.0865,-0.0868,-0.0871,-0.0871,-0.0866,-0.0866,-0.0866,-0.0869,0,-0.0929,-0.0923,-0.0917,-0.0913,-0.091,-0.0904,-0.0902,-0.0897,-0.0892,-0.0889,-0.0884,-0.088,-0.0877,-0.0875,-0.0874,-0.0869,-0.0869,-0.0868,-0.0864,-0.0864,-0.0866,-0.0872,-0.0874,-0.0877,-0.0869,-0.0869,-0.0869,0,-0.0929,-0.0925,-0.0921,-0.0914,-0.0912,-0.091,-0.0905,-0.0902,-0.0896,-0.0893,-0.089,-0.0885,-0.0882,-0.088,-0.0876,-0.0875,-0.0873,-0.0871,-0.087,-0.087,-0.0867,-0.0872,-0.0878,-0.0879,-0.087,-0.087,-0.087,0,-0.0934,-0.0927,-0.0924,-0.0922,-0.0914,-0.0912,-0.0909,-0.0904,-0.0901,-0.0897,-0.0895,-0.089,-0.0888,-0.0884,-0.0879,-0.0877,-0.0876,-0.0873,-0.0874,-0.0874,-0.0874,-0.0874,-0.088,-0.0872,-0.0872,-0.0872,-0.0872,0,-0.0936,-0.0934,-0.0926,-0.0925,-0.0922,-0.0916,-0.0914,-0.091,-0.0906,-0.0903,-0.0898,-0.0896,-0.0889,-0.0886,-0.0882,-0.088,-0.0878,-0.0876,-0.0875,-0.0877,-0.0877,-0.0876,-0.0875,-0.0872,-0.0872,-0.0872,-0.0872,0,-0.0942,-0.0936,-0.0933,-0.0926,-0.0924,-0.0923,-0.0917,-0.0915,-0.0911,-0.0908,-0.0907,-0.0901,-0.0897,-0.0892,-0.0886,-0.0884,-0.0882,-0.088,-0.0884,-0.0884,-0.0885,-0.0885,-0.0891,-0.0892,-0.0883,-0.0883,-0.0883,0,-0.0943,-0.0942,-0.0935,-0.0933,-0.093,-0.0927,-0.0924,-0.0919,-0.0916,-0.0911,-0.091,-0.0906,-0.0903,-0.0897,-0.0892,-0.0889,-0.0887,-0.0889,-0.0886,-0.0888,-0.0887,-0.0888,-0.0888,-0.089,-0.089,-0.089,-0.089,0,-0.0947,-0.0945,-0.0941,-0.0937,-0.0935,-0.0931,-0.0927,-0.0926,-0.092,-0.0918,-0.0914,-0.0912,-0.0907,-0.0903,-0.0899,-0.0896,-0.0892,-0.0891,-0.0891,-0.0893,-0.0896,-0.0895,-0.0886,-0.0891,-0.0891,-0.0891,-0.0891,-0.0891,-0.0951,-0.0949,-0.0945,-0.0941,-0.0938,-0.0935,-0.0933,-0.093,-0.0927,-0.0922,-0.0919,-0.0916,-0.0912,-0.0906,-0.0903,-0.0901,-0.0899,-0.0899,-0.0899,-0.0899,-0.09,-0.0896,-0.09,-0.09,-0.09,-0.09,-0.09,0,-0.0955,-0.0952,-0.0949,-0.0944,-0.0942,-0.0939,-0.0935,-0.0933,-0.093,-0.0927,-0.0924,-0.0921,-0.0917,-0.0912,-0.0909,-0.0908,-0.0907,-0.0908,-0.0908,-0.0907,-0.0902,-0.0902,-0.0909,-0.0909,-0.0909,-0.0909,-0.0909,-0.0909,-0.0956,-0.0954,-0.0951,-0.0948,-0.0945,-0.0942,-0.094,-0.0938,-0.0935,-0.0931,-0.0929,-0.0926,-0.0922,-0.0918,-0.0916,-0.0914,-0.0914,-0.0915,-0.0913,-0.0908,-0.0907,-0.0907,-0.0907,-0.0915,-0.0915,-0.0919,-0.0919,-0.0919]},{"header":{"parameterUnit":"m.s-1","parameterCategory":1,"la1":30.2991,"la2":30.254,"lo1":-89.0895,"lo2":-89.0444,"dy":0.0017,"dx":0.0017,"nx":28,"ny":28,"refTime":"2024-05-08T09:00:00:Z","depth":0,"parameterNumber":3,"parameterNumberName":"V-component_of_WINDS"},"data":[0,0,0,0,0,0,0,0,0,0,0,0,0,0,0,0,0,0,0,0,0,0,0,0,0,0,0,0,0,0,0,0,0,0,0,0,0,0,0,0,0,0,0,0,0,0,0,0,0,0,0,0,0,0,0,0,0,0,5.5743,5.5744,0,5.5813,5.5813,5.5814,5.5754,5.5752,5.5749,5.5747,5.5813,5.5817,5.5821,0,0,0,0,0,0,0,0,0,0,0,0,0,5.5551,5.5555,5.5743,5.5744,5.5745,5.5813,5.5813,5.5814,5.5754,5.5751,5.5748,5.5746,5.5811,5.5816,5.5821,0,0,0,0,0,0,0,0,0,0,0,0,0,5.5629,5.5556,5.5743,5.5723,5.5722,5.5812,5.5813,5.5815,5.5755,5.5751,5.5748,5.5744,5.581,5.5816,5.5822,5.5933,0,0,5.584,5.5843,0,0,0,0,0,0,0,0,5.5624,5.5636,5.5725,5.5725,5.5724,5.5771,5.577,5.5854,5.5756,5.5742,5.5747,5.5742,5.5801,5.5808,5.5829,5.5936,5.5939,5.5841,5.5844,5.5847,5.5849,0,0,0,0,0,0,0,5.5619,5.5632,5.577,5.5726,5.5725,5.5708,5.5715,5.5786,5.5792,5.5743,5.5739,5.5748,5.58,5.5823,5.583,5.594,5.5841,5.5846,5.585,5.5852,5.614,5.6144,0,0,0,0,0,0,5.5617,5.5628,5.5768,5.5772,5.5664,5.5715,5.5723,5.5759,5.5791,5.5792,5.5752,5.5745,5.5815,5.5823,5.5832,5.5963,5.5847,5.5853,5.5856,5.6136,5.6141,5.6145,0,0,0,0,0,0,5.5613,5.563,5.5765,5.5699,5.5715,5.5722,5.5764,5.5763,5.5786,5.5797,5.5797,5.5774,5.5812,5.5824,5.5908,5.5965,5.5855,5.5861,5.6131,5.6138,5.6143,5.6227,0,0,0,0,0,0,5.5608,5.5629,5.5673,5.5701,5.5719,5.5843,5.5767,5.5767,5.5797,5.579,5.5819,5.582,5.581,5.59,5.5914,5.5971,5.5866,5.6126,5.6134,5.6141,5.622,5.6236,5.6249,0,0,0,0,0,5.5601,5.5693,5.5675,5.5693,5.5775,5.5846,5.5856,5.5845,5.5802,5.5845,5.5852,5.5819,5.5957,5.5909,5.5925,5.5984,5.6123,5.6132,5.6141,5.6213,5.6232,5.6249,0,0,0,0,0,0,5.567,5.5696,5.5677,5.5782,5.5812,5.5836,5.589,5.5866,5.5908,5.5899,5.5881,5.5888,5.5978,5.5989,5.5936,5.6093,5.6032,5.6045,5.6082,5.61,5.6115,5.6109,5.5871,0,0,0,0,0,5.5697,5.5755,5.5774,5.5865,5.5881,5.5883,5.5914,5.5902,5.5933,5.5945,5.5958,5.5987,5.6036,5.6069,5.6115,5.6221,5.6225,5.627,5.6285,5.6297,5.6307,5.6362,5.6381,5.6175,5.6175,5.6174,0,0,5.5754,5.5776,5.5813,5.5879,5.5901,5.5959,5.5894,5.5959,5.6,5.5954,5.6035,5.6045,5.6076,5.6172,5.6214,5.6184,5.6365,5.6308,5.6318,5.6322,5.6373,5.6393,5.641,5.6181,5.618,5.6179,0,0,5.5888,5.5911,5.5988,5.6012,5.6047,5.6048,5.6066,5.6093,5.6099,5.6181,5.6146,5.6195,5.6281,5.6304,5.6327,5.6468,5.6438,5.6483,5.656,5.6614,5.663,5.6644,5.6692,5.671,5.6494,5.6494,5.6495,0,5.5953,5.6041,5.603,5.6097,5.6125,5.6087,5.6163,5.6186,5.6234,5.6254,5.622,5.6327,5.6345,5.6444,5.6479,5.6499,5.6518,5.6479,5.6629,5.6643,5.6656,5.6702,5.672,5.65,5.6499,5.6498,5.6498,0,5.6119,5.6181,5.6238,5.6287,5.6322,5.6393,5.639,5.6427,5.6412,5.6416,5.6498,5.6518,5.6567,5.659,5.6576,5.6687,5.6667,5.6632,5.657,5.6681,5.6724,5.6741,5.6507,5.6505,5.6504,5.6502,0,0,5.6297,5.6339,5.636,5.6381,5.6417,5.6463,5.6531,5.658,5.6611,5.6645,5.67,5.6774,5.6741,5.6767,5.6755,5.6802,5.691,5.676,5.6761,5.6786,5.7031,5.7056,5.7077,5.6891,5.6895,5.6897,5.7028,0,5.6431,5.6552,5.6543,5.6656,5.6711,5.6675,5.6734,5.6761,5.6766,5.6811,5.6816,5.6868,5.6821,5.6836,5.6882,5.6888,5.6959,5.6878,5.694,5.6942,5.6932,5.71,5.7127,5.7249,5.7044,5.7047,5.7049,0,5.6602,5.6644,5.6763,5.6789,5.6811,5.6865,5.6909,5.6954,5.6983,5.6983,5.7012,5.6992,5.7058,5.6996,5.7086,5.7031,5.7056,5.7062,5.7067,5.707,5.7001,5.7106,5.7288,5.7306,5.7076,5.7074,5.7072,0,5.6718,5.6803,5.6885,5.6904,5.6937,5.6975,5.699,5.7016,5.7046,5.7083,5.7102,5.7147,5.717,5.7204,5.7196,5.7152,5.7286,5.7225,5.7286,5.7286,5.7315,5.7313,5.7501,5.7334,5.7334,5.7333,5.7333,0,5.6867,5.694,5.6937,5.6987,5.7068,5.7056,5.7135,5.7146,5.7169,5.7218,5.719,5.7236,5.7223,5.7269,5.7262,5.7336,5.7347,5.7347,5.7344,5.7349,5.7349,5.7364,5.7354,5.7338,5.7337,5.7336,5.7335,0,5.7009,5.701,5.7097,5.7121,5.7129,5.7187,5.7207,5.7253,5.7255,5.7318,5.7332,5.7336,5.7388,5.7383,5.7441,5.7436,5.7527,5.7515,5.7518,5.7515,5.7576,5.7569,5.7779,5.7805,5.7623,5.7624,5.7626,0,5.7103,5.7159,5.719,5.7222,5.724,5.7292,5.7322,5.7312,5.7345,5.7381,5.7422,5.7472,5.7511,5.7595,5.7602,5.7645,5.7633,5.7703,5.7639,5.7641,5.7631,5.7628,5.7632,5.7715,5.7717,5.7719,5.772,0,5.7269,5.7267,5.7313,5.736,5.7397,5.7433,5.7465,5.7492,5.7485,5.7522,5.7576,5.7606,5.7666,5.7715,5.7756,5.7769,5.7743,5.7741,5.7757,5.7761,5.776,5.776,5.7551,5.7736,5.7734,5.7733,5.7732,5.7732,5.7389,5.7436,5.7465,5.7517,5.754,5.7571,5.7615,5.7624,5.7669,5.7717,5.7708,5.7768,5.7793,5.7846,5.7863,5.7908,5.7882,5.7906,5.7912,5.7918,5.7924,5.7755,5.7916,5.7915,5.7915,5.7915,5.7914,0,5.7552,5.7569,5.7617,5.7663,5.7704,5.7678,5.7712,5.7746,5.78,5.7827,5.7866,5.7926,5.7973,5.7983,5.8028,5.8061,5.805,5.8073,5.807,5.8073,5.7946,5.7926,5.8081,5.8081,5.8081,5.8081,5.8081,5.8081,5.7642,5.772,5.7721,5.781,5.7825,5.7885,5.7906,5.7933,5.7954,5.8024,5.8063,5.807,5.8089,5.8135,5.8176,5.8177,5.8194,5.8221,5.8218,5.8099,5.8082,5.8066,5.8048,5.8226,5.8226,5.8341,5.8342,5.8343]}]]